Weather observations for the past three days for
Yuma, Marine Corps Air Station
| Date | Time (mst) | Wind (mph) | Vis. (mi.) | Weather | Sky Cond. | Temperature (ºF) | Relative Humidity | Wind Chill (°F) | Heat Index (°F) | Pressure | Precipitation (in) | ||||||
|---|---|---|---|---|---|---|---|---|---|---|---|---|---|---|---|---|---|
| Air | Dwpt | 6 hour | altimeter (in) | sea level (mb) | 1 hr | 3 hr | 6 hr | ||||||||||
| Max. | Min. | ||||||||||||||||
| 10 | 04:57 | E 5 | 10.00 | Fair | CLR | 75 | 39.9 | 84.9 | 73 | 28% | 77 | 29.74 | 1006.5 | ||||
| 10 | 03:57 | NE 6 | 10.00 | Fair | CLR | 75.9 | 39.9 | 27% | 77 | 29.73 | 1006.4 | ||||||
| 10 | 02:57 | NW 3 | 10.00 | Fair | CLR | 77 | 39.9 | 26% | 77 | 29.73 | 1006.3 | ||||||
| 10 | 01:57 | Calm | 10.00 | Fair | CLR | 80.1 | 39 | 23% | 79 | 29.73 | 1006.5 | ||||||
| 10 | 00:57 | Calm | 10.00 | Fair | CLR | 81 | 39.9 | 23% | 79 | 29.74 | 1006.7 | ||||||
| 09 | 23:57 | Calm | 10.00 | Fair | CLR | 82.9 | 39 | 21% | 81 | 29.74 | 1006.8 | ||||||
| 09 | 22:57 | E 7 | 10.00 | Fair | CLR | 84.9 | 39.9 | 104 | 84 | 20% | 82 | 29.75 | 1006.8 | ||||
| 09 | 21:57 | W 5 | 10.00 | Fair | CLR | 86 | 37.9 | 18% | 83 | 29.73 | 1006.3 | ||||||
| 09 | 20:57 | S 7 | 10.00 | Fair | CLR | 89.1 | 30 | 12% | 85 | 29.7 | 1005.5 | ||||||
| 09 | 19:57 | SW 6 | 10.00 | Fair | CLR | 95 | 34 | 12% | 90 | 29.68 | 1004.7 | ||||||
| 09 | 17:57 | SW 9 | 10.00 | Fair | CLR | 102.9 | 34 | 9% | 97 | 29.67 | 1004.3 | ||||||
| 09 | 16:57 | W 9 | 10.00 | Fair | CLR | 104 | 28.9 | 104 | 93.9 | 7% | 98 | 29.67 | 1004.4 | ||||
| 09 | 15:57 | Calm | 10.00 | Fair | CLR | 104 | 28 | 7% | 98 | 29.69 | 1005.0 | ||||||
| 09 | 14:57 | W 7 | 10.00 | Fair | CLR | 102 | 28.9 | 8% | 96 | 29.71 | 1005.8 | ||||||
| 09 | 13:57 | S 7 | 10.00 | Fair | CLR | 100 | 27 | 7% | 94 | 29.75 | 1006.9 | ||||||
| 09 | 12:57 | Calm | 10.00 | Fair | CLR | 99 | 28 | 8% | 94 | 29.77 | 1007.7 | ||||||
| 09 | 11:57 | Vrbl 6 | 10.00 | Fair | CLR | 97 | 27 | 8% | 92 | 29.79 | 1008.4 | ||||||
| 09 | 09:57 | SW 5 | 10.00 | Fair | CLR | 89.1 | 39 | 17% | 85 | 29.8 | 1008.9 | ||||||
| 09 | 08:57 | Calm | 10.00 | Fair | CLR | 86 | 37.9 | 18% | 83 | 29.8 | 1008.7 | ||||||
| 09 | 06:57 | Calm | 10.00 | Fair | CLR | 73 | 45 | 37% | 29.78 | 1008.1 | |||||||
| 09 | 05:57 | NE 3 | 10.00 | Fair | CLR | 70 | 46.9 | 44% | 29.77 | 1007.7 | |||||||
| 09 | 04:57 | Calm | 9.00 | Fair | CLR | 71.1 | 46.9 | 81 | 71.1 | 42% | 29.75 | 1007.2 | |||||
| 09 | 00:57 | S 3 | 10.00 | Fair | CLR | 75.9 | 46.9 | 36% | 78 | 29.77 | 1007.8 | ||||||
| 08 | 23:57 | SW 6 | 10.00 | Fair | CLR | 79 | 46 | 31% | 79 | 29.79 | 1008.4 | ||||||
| 08 | 22:57 | SW 5 | 10.00 | Fair | CLR | 81 | 45 | 102 | 80.1 | 28% | 80 | 29.79 | 1008.5 | ||||
| 08 | 21:57 | S 9 | 10.00 | Fair | CLR | 82.9 | 43 | 24% | 81 | 29.78 | 1008.2 | ||||||
| 08 | 20:57 | S 6 | 10.00 | Fair | CLR | 86 | 46 | 25% | 83 | 29.75 | 1007.2 | ||||||
| 08 | 19:57 | S 12 G 17 | 10.00 | Fair | CLR | 93 | 41 | 16% | 89 | 29.73 | 1006.5 | ||||||
| 08 | 17:57 | SW 8 | 10.00 | Fair | CLR | 100.9 | 33.1 | 9% | 95 | 29.72 | 1006.1 | ||||||
| 08 | 16:57 | SW 7 | 10.00 | Fair | CLR | 100.9 | 34 | 102 | 90 | 10% | 96 | 29.73 | 1006.3 | ||||
| 08 | 15:57 | SW 8 | 10.00 | Fair | CLR | 100.9 | 37 | 11% | 96 | 29.74 | 1006.9 | ||||||
| 08 | 14:57 | SW 10 | 10.00 | Fair | CLR | 100.9 | 39.9 | 12% | 96 | 29.77 | 1007.7 | ||||||
| 08 | 13:57 | Calm | 10.00 | Fair | CLR | 99 | 42.1 | 14% | 95 | 29.8 | 1008.7 | ||||||
| 08 | 12:57 | W 9 G 16 | 10.00 | Fair | CLR | 97 | 41 | 14% | 93 | 29.82 | 1009.6 | ||||||
| 08 | 11:57 | SW 9 | 10.00 | Fair | CLR | 95 | 44.1 | 17% | 91 | 29.84 | 1010.2 | ||||||
| 08 | 10:57 | S 6 | 10.00 | Fair | CLR | 90 | 44.1 | 90 | 68 | 20% | 86 | 29.86 | 1010.8 | ||||
| 08 | 09:57 | S 7 | 10.00 | Fair | CLR | 87.1 | 46 | 24% | 84 | 29.87 | 1011.0 | ||||||
| 08 | 08:57 | S 10 | 10.00 | Fair | CLR | 81 | 51.1 | 35% | 80 | 29.86 | 1011.0 | ||||||
| 08 | 07:57 | S 9 | 10.00 | Fair | CLR | 75.9 | 52 | 43% | 78 | 29.86 | 1010.8 | ||||||
| 08 | 06:57 | S 7 | 10.00 | Fair | CLR | 72 | 53.1 | 52% | 29.84 | 1010.2 | |||||||
| 08 | 03:57 | S 9 | 10.00 | Fair | CLR | 70 | 46.9 | 44% | 29.81 | 1009.0 | |||||||
| 08 | 01:57 | S 5 | 10.00 | Fair | CLR | 72 | 45 | 38% | 29.81 | 1009.1 | |||||||
| 07 | 23:57 | S 7 | 10.00 | Fair | CLR | 75.9 | 46 | 35% | 78 | 29.83 | 1009.8 | ||||||
| 07 | 21:57 | SW 6 | 10.00 | Fair | CLR | 84 | 35.1 | 17% | 81 | 29.81 | 1009.3 | ||||||
| 07 | 20:57 | SW 6 | 10.00 | Fair | CLR | 84.9 | 37 | 18% | 82 | 29.8 | 1008.7 | ||||||
| 07 | 19:57 | SW 8 | 10.00 | Fair | CLR | 91 | 36 | 14% | 87 | 29.78 | 1008.1 | ||||||
| 07 | 18:57 | SW 10 | 10.00 | Fair | CLR | 93 | 37 | 14% | 89 | 29.76 | 1007.5 | ||||||
| 07 | 17:57 | W 9 | 10.00 | Fair | CLR | 96.1 | 35.1 | 12% | 91 | 29.76 | 1007.4 | ||||||
| 07 | 16:57 | SW 13 | 10.00 | Fair | CLR | 98.1 | 33.1 | 98.1 | 86 | 10% | 93 | 29.76 | 1007.4 | ||||
| 07 | 14:57 | SW 8 | 10.00 | Fair | CLR | 95 | 36 | 13% | 90 | 29.8 | 1008.7 | ||||||
| 07 | 13:57 | W 8 | 10.00 | Fair | CLR | 93.9 | 37 | 14% | 89 | 29.83 | 1009.7 | ||||||
| 07 | 12:57 | W 8 | 10.00 | Fair | CLR | 91.9 | 37 | 14% | 88 | 29.86 | 1010.7 | ||||||
| 07 | 11:57 | NW 5 | 10.00 | Fair | CLR | 90 | 37.9 | 16% | 86 | 29.89 | 1011.7 | ||||||
| 07 | 10:57 | Vrbl 3 | 10.00 | Fair | CLR | 86 | 39.9 | 86 | 63 | 20% | 83 | 29.9 | 1012.2 | ||||
| 07 | 09:57 | Calm | 10.00 | Fair | CLR | 81 | 41 | 24% | 79 | 29.92 | 1012.7 | ||||||
| 07 | 08:57 | Vrbl 3 | 10.00 | Fair | CLR | 77 | 39 | 26% | 77 | 29.92 | 1012.8 | ||||||
| 07 | 07:57 | Calm | 10.00 | Fair | CLR | 72 | 36 | 27% | 29.92 | 1012.8 | |||||||
| 07 | 06:57 | Calm | 10.00 | Fair | CLR | 66.9 | 41 | 39% | 29.91 | 1012.6 | |||||||
| 07 | 05:57 | Calm | 10.00 | Fair | CLR | 64 | 39 | 40% | 29.89 | 1012.0 | |||||||
| Date | Time (mst) | Wind (mph) | Vis. (mi.) | Weather | Sky Cond. | Air | Dwpt | Max. | Min. | Relative Humidity | Wind Chill (°F) | Heat Index (°F) | altimeter (in) | sea level (mb) | 1 hr | 3 hr | 6 hr |
| 6 hour | |||||||||||||||||
| Temperature (ºF) | Pressure | Precipitation (in) | |||||||||||||||